Time,TemperatureF,DewpointF,PressureIn,WindDirection,WindDirectionDegrees,WindSpeedMPH,WindSpeedGustMPH,Humidity,HourlyPrecipIn,Conditions,Clouds,dailyrainin,SoftwareType,DateUTC
2013-05-02 00:00:00,54.7,38.8,30.17,North,0,0.0,0.0,55,0.00,,,0.00,WUHU216HW,2013-05-02 07:00:00,
2013-05-02 00:05:00,54.7,38.8,30.17,North,0,0.0,0.0,55,0.00,,,0.00,WUHU216HW,2013-05-02 07:05:00,
2013-05-02 01:00:00,54.2,37.8,30.16,North,0,1.1,1.1,54,0.00,,,0.00,WUHU216HW,2013-05-02 08:00:00,
2013-05-02 01:05:00,54.2,37.8,30.16,North,0,1.1,1.1,54,0.00,,,0.00,WUHU216HW,2013-05-02 08:05:00,
2013-05-02 02:00:00,53.5,39.5,30.15,North,0,0.2,0.2,59,0.00,,,0.00,WUHU216HW,2013-05-02 09:00:00,
2013-05-02 02:05:00,53.5,39.5,30.15,North,0,0.2,0.2,59,0.00,,,0.00,WUHU216HW,2013-05-02 09:05:00,
2013-05-02 03:00:00,51.8,38.3,30.15,NNW,338,0.4,0.4,60,0.00,,,0.00,WUHU216HW,2013-05-02 10:00:00,
2013-05-02 03:05:00,51.8,38.3,30.15,NNW,338,0.4,0.4,60,0.00,,,0.00,WUHU216HW,2013-05-02 10:05:00,
2013-05-02 04:00:00,51.1,37.7,30.13,North,0,0.0,0.0,60,0.00,,,0.00,WUHU216HW,2013-05-02 11:00:00,
2013-05-02 04:05:00,51.1,37.7,30.13,North,0,0.0,0.0,60,0.00,,,0.00,WUHU216HW,2013-05-02 11:05:00,
2013-05-02 05:00:00,49.7,38.0,30.12,North,0,0.4,0.4,64,0.00,,,0.00,WUHU216HW,2013-05-02 12:00:00,
2013-05-02 05:05:00,49.7,38.0,30.12,North,0,0.4,0.4,64,0.00,,,0.00,WUHU216HW,2013-05-02 12:05:00,
2013-05-02 05:59:00,49.3,38.0,30.12,NNE,23,0.0,0.0,65,0.00,,,0.00,WUHU216HW,2013-05-02 12:59:00,
2013-05-02 06:00:00,49.3,38.0,30.12,NNE,23,0.0,0.0,65,0.00,,,0.00,WUHU216HW,2013-05-02 13:00:00,
2013-05-02 06:05:00,49.3,38.0,30.12,NNE,23,0.0,0.0,65,0.00,,,0.00,WUHU216HW,2013-05-02 13:05:00,
2013-05-02 06:59:00,49.7,39.5,30.11,NNW,338,0.0,0.0,68,0.00,,,0.00,WUHU216HW,2013-05-02 13:59:00,
2013-05-02 07:00:00,49.7,39.5,30.11,NNW,338,0.0,0.0,68,0.00,,,0.00,WUHU216HW,2013-05-02 14:00:00,
2013-05-02 07:05:00,49.7,39.5,30.11,NNW,338,0.0,0.0,68,0.00,,,0.00,WUHU216HW,2013-05-02 14:05:00,
2013-05-02 07:59:00,52.6,42.8,30.11,NE,45,4.0,4.0,69,0.00,,,0.00,WUHU216HW,2013-05-02 14:59:00,
2013-05-02 08:00:00,52.6,42.8,30.11,NE,45,4.0,4.0,69,0.00,,,0.00,WUHU216HW,2013-05-02 15:00:00,
2013-05-02 08:05:00,52.6,42.8,30.11,NE,45,4.0,4.0,69,0.00,,,0.00,WUHU216HW,2013-05-02 15:05:00,
2013-05-02 08:59:00,68.8,46.4,30.10,NNE,23,1.8,1.8,45,0.00,,,0.00,WUHU216HW,2013-05-02 15:59:00,
2013-05-02 09:00:00,68.8,46.4,30.10,NNE,23,1.8,1.8,45,0.00,,,0.00,WUHU216HW,2013-05-02 16:00:00,
2013-05-02 09:05:00,68.8,46.4,30.10,NNE,23,1.8,1.8,45,0.00,,,0.00,WUHU216HW,2013-05-02 16:05:00,
2013-05-02 09:59:00,76.1,47.9,30.09,SW,225,1.1,1.1,37,0.00,,,0.00,WUHU216HW,2013-05-02 16:59:00,
2013-05-02 10:00:00,76.1,47.9,30.09,SW,225,1.1,1.1,37,0.00,,,0.00,WUHU216HW,2013-05-02 17:00:00,
2013-05-02 10:05:00,76.1,47.9,30.09,SW,225,1.1,1.1,37,0.00,,,0.00,WUHU216HW,2013-05-02 17:05:00,
2013-05-02 10:59:00,83.7,48.0,30.07,ESE,113,0.0,0.0,29,0.00,,,0.00,WUHU216HW,2013-05-02 17:59:00,
2013-05-02 11:00:00,83.7,48.0,30.07,ESE,113,0.0,0.0,29,0.00,,,0.00,WUHU216HW,2013-05-02 18:00:00,
2013-05-02 11:05:00,83.7,48.0,30.07,ESE,113,0.0,0.0,29,0.00,,,0.00,WUHU216HW,2013-05-02 18:05:00,
2013-05-02 11:59:00,86.9,46.5,30.07,North,0,1.6,1.6,25,0.00,,,0.00,WUHU216HW,2013-05-02 18:59:00,
2013-05-02 12:00:00,86.9,46.5,30.07,North,0,1.6,1.6,25,0.00,,,0.00,WUHU216HW,2013-05-02 19:00:00,
2013-05-02 12:05:00,86.9,46.5,30.07,North,0,1.6,1.6,25,0.00,,,0.00,WUHU216HW,2013-05-02 19:05:00,
2013-05-02 12:59:00,85.7,45.5,30.05,East,90,2.9,2.9,25,0.00,,,0.00,WUHU216HW,2013-05-02 19:59:00,
2013-05-02 13:00:00,85.7,45.5,30.05,East,90,2.9,2.9,25,0.00,,,0.00,WUHU216HW,2013-05-02 20:00:00,
2013-05-02 13:05:00,85.7,45.5,30.05,East,90,2.9,2.9,25,0.00,,,0.00,WUHU216HW,2013-05-02 20:05:00,
2013-05-02 13:59:00,77.8,42.9,30.03,North,0,1.8,1.8,29,0.00,,,0.00,WUHU216HW,2013-05-02 20:59:00,
2013-05-02 14:00:00,77.8,42.9,30.03,North,0,1.8,1.8,29,0.00,,,0.00,WUHU216HW,2013-05-02 21:00:00,
2013-05-02 14:05:00,77.8,42.9,30.03,North,0,1.8,1.8,29,0.00,,,0.00,WUHU216HW,2013-05-02 21:05:00,
2013-05-02 14:59:00,76.0,43.9,30.02,NNW,338,1.1,1.1,32,0.00,,,0.00,WUHU216HW,2013-05-02 21:59:00,
2013-05-02 15:00:00,76.0,43.9,30.02,NNW,338,1.1,1.1,32,0.00,,,0.00,WUHU216HW,2013-05-02 22:00:00,
2013-05-02 15:05:00,76.0,43.9,30.02,NNW,338,1.1,1.1,32,0.00,,,0.00,WUHU216HW,2013-05-02 22:05:00,
2013-05-02 15:59:00,71.6,42.4,30.02,North,0,0.0,0.0,35,0.00,,,0.00,WUHU216HW,2013-05-02 22:59:00,
2013-05-02 16:00:00,71.6,42.4,30.02,North,0,0.0,0.0,35,0.00,,,0.00,WUHU216HW,2013-05-02 23:00:00,
2013-05-02 16:05:00,71.6,42.4,30.02,North,0,0.0,0.0,35,0.00,,,0.00,WUHU216HW,2013-05-02 23:05:00,
2013-05-02 16:59:00,69.5,42.0,30.01,NW,315,1.3,1.3,37,0.00,,,0.00,WUHU216HW,2013-05-02 23:59:00,
2013-05-02 17:00:00,69.5,42.0,30.01,NW,315,1.3,1.3,37,0.00,,,0.00,WUHU216HW,2013-05-03 00:00:00,
2013-05-02 17:05:00,69.5,42.0,30.01,NW,315,1.3,1.3,37,0.00,,,0.00,WUHU216HW,2013-05-03 00:05:00,
2013-05-02 17:59:00,67.1,40.6,30.01,NW,315,3.4,3.4,38,0.00,,,0.00,WUHU216HW,2013-05-03 00:59:00,
2013-05-02 18:00:00,67.1,40.6,30.01,NW,315,3.4,3.4,38,0.00,,,0.00,WUHU216HW,2013-05-03 01:00:00,
2013-05-02 18:05:00,67.1,40.6,30.01,NW,315,3.4,3.4,38,0.00,,,0.00,WUHU216HW,2013-05-03 01:05:00,
2013-05-02 19:00:00,65.7,40.8,30.01,North,0,3.4,3.4,40,0.00,,,0.00,WUHU216HW,2013-05-03 02:00:00,
2013-05-02 19:03:00,65.3,40.4,30.01,NNE,23,4.5,5.1,40,0.00,,,0.00,WUHU216HW,2013-05-03 02:03:00,
2013-05-02 19:05:00,65.3,40.4,30.01,West,272,4.9,6.3,40,0.00,,,0.00,WUHU216HW,2013-05-03 02:05:00,
2013-05-02 19:10:00,65.3,40.4,30.01,NNE,23,4.5,6.3,40,0.00,,,0.00,WUHU216HW,2013-05-03 02:10:00,
2013-05-02 20:00:00,62.3,41.1,30.00,NNE,23,2.2,2.2,46,0.00,,,0.00,WUHU216HW,2013-05-03 03:00:00,
2013-05-02 20:05:00,62.3,41.1,30.00,NNE,23,2.2,2.2,46,0.00,,,0.00,WUHU216HW,2013-05-03 03:05:00,
2013-05-02 21:00:00,60.1,40.9,30.01,NNE,23,1.6,1.6,49,0.00,,,0.00,WUHU216HW,2013-05-03 04:00:00,
2013-05-02 21:01:00,60.1,40.9,30.01,NNE,23,1.6,1.6,49,0.00,,,0.00,WUHU216HW,2013-05-03 04:01:00,
2013-05-02 21:06:00,60.1,40.9,30.01,NNE,23,1.6,1.6,49,0.00,,,0.00,WUHU216HW,2013-05-03 04:06:00,
2013-05-02 22:00:00,58.3,41.2,30.00,NNE,23,3.4,3.4,53,0.00,,,0.00,WUHU216HW,2013-05-03 05:00:00,
2013-05-02 22:05:00,58.3,41.2,30.00,NNE,23,3.4,3.4,53,0.00,,,0.00,WUHU216HW,2013-05-03 05:05:00,
2013-05-02 23:00:00,56.9,40.4,30.00,North,0,1.1,1.1,54,0.00,,,0.00,WUHU216HW,2013-05-03 06:00:00,
2013-05-02 23:05:00,56.9,40.4,30.00,North,0,1.1,1.1,54,0.00,,,0.00,WUHU216HW,2013-05-03 06:05:00,